Weather History for KJKL - July, 2014

Change the Weather History Date:

Sunday, July 27, 2014

  Actual Average Record
Temperature  
Mean Temperature 73 °F 75 °F  
Max Temperature 77 °F 85 °F 91 °F (1981)
Min Temperature 68 °F 66 °F 62 °F (1984)
Degree Days  
Heating Degree Days 0 0  
Month to date heating degree days 1 0  
Since 1 June heating degree days 1 12  
Since 1 July heating degree days 1 0  
Cooling Degree Days 8 10  
Month to date cooling degree days 240 276  
Year to date cooling degree days 718 635  
Since 1 June cooling degree days 527 499  
Growing Degree Days 22 (Base 50)    
Moisture  
Dew Point 68 °F    
Average Humidity 84    
Maximum Humidity 93    
Minimum Humidity 74    
Precipitation  
Precipitation 1.37 in 0.15 in 1.37 in (2014)
Month to date precipitation 5.77 4.05  
Year to date precipitation 29.75 29.26  
Snow  
Snow 0.00 in 0.00 in - ()
Month to date snowfall 0.0 0.0  
Since 1 June snowfall 0.0 0.0  
Since 1 July snowfall 0.0 0.0  
Snow Depth 0.00 in    
Sea Level Pressure  
Sea Level Pressure 29.88 in    
Wind  
Wind Speed 4 mph (West)    
Max Wind Speed 13 mph    
Max Gust Speed 19 mph    
Visibility 4 miles    
Events Fog , Rain , Thunderstorm    
T = Trace of Precipitation, MM = Missing Value Source: NWS Daily Summary

Daily Weather History Graph

Daily Weather History Graph

Search for Another Location

Airport or City:

Trip Planner

Search our weather history database for the weather conditions in past years. The results will help you decide how hot, cold, wet, or windy it might be!

Date:

Astronomy

Jul. 27, 2014 Rise Set
Actual Time 6:33 AM EDT 8:46 PM EDT
Civil Twilight 6:03 AM EDT 9:15 PM EDT
Nautical Twilight 5:27 AM EDT 9:51 PM EDT
Astronomical Twilight 4:48 AM EDT 10:30 PM EDT
Moon 7:16 AM EDT (7/27) 8:57 PM EDT (7/27)
Length of Visible Light 15h 11m
Length of Day
14h 12m
New Moon, 0% of the Moon is Illuminated
Jul 27
New Moon
Aug 3
First Quarter
Aug 10
Full
Aug 17
Last Quarter
Aug 25
New

Hourly Weather History & Observations

Time (EDT) Temp. Dew Point Humidity Pressure Visibility Wind Dir Wind Speed Gust Speed Precip Events Conditions
12:53 AM 75.0 °F 66.9 °F 76% 29.94 in 10.0 mi Calm Calm - N/A   Mostly Cloudy
1:53 AM 72.0 °F 68.0 °F 87% 29.96 in 9.0 mi West 9.2 mph - 0.02 in Rain Light Rain
2:53 AM 70.0 °F 66.0 °F 87% 29.95 in 10.0 mi Variable 4.6 mph - 0.01 in Rain Light Rain
3:53 AM 68.0 °F 66.0 °F 93% 29.90 in 10.0 mi Variable 4.6 mph - 0.01 in   Mostly Cloudy
4:53 AM 68.0 °F 66.0 °F 93% 29.87 in 10.0 mi Calm Calm - 0.00 in   Overcast
5:20 AM 68.0 °F 66.0 °F 93% 29.93 in 10.0 mi Calm Calm - N/A   Overcast
5:53 AM 68.0 °F 64.9 °F 90% 29.88 in 10.0 mi Calm Calm - N/A   Scattered Clouds
6:53 AM 68.0 °F 64.9 °F 90% 29.89 in 10.0 mi North - - N/A   Mostly Cloudy
7:53 AM 69.1 °F 64.9 °F 87% 29.90 in 9.0 mi Variable 5.8 mph - 0.00 in Rain Light Rain
8:53 AM 72.0 °F 66.0 °F 81% 29.87 in 10.0 mi West 8.1 mph 18.4 mph 0.00 in   Clear
9:53 AM 70.0 °F 64.0 °F 81% 29.90 in 10.0 mi NW 5.8 mph - 0.01 in Rain Light Rain
10:53 AM 69.1 °F 66.0 °F 90% 29.96 in 9.0 mi WNW 4.6 mph - 0.04 in Rain Light Rain
11:07 AM 69.1 °F 66.9 °F 93% 29.99 in 0.8 mi SW 3.5 mph - 0.00 in Rain Light Rain
11:20 AM 68.0 °F 66.0 °F 93% 29.95 in 1.8 mi Variable 4.6 mph - 0.03 in Rain Light Rain
11:26 AM 68.0 °F 66.0 °F 93% 29.96 in 3.0 mi Variable 3.5 mph - 0.03 in Rain Light Rain
11:44 AM 69.1 °F 66.9 °F 93% 29.99 in 3.0 mi NW 4.6 mph - 0.03 in Rain Light Rain
11:53 AM 69.1 °F 66.9 °F 93% 29.97 in 5.0 mi NNW 5.8 mph - 0.03 in Rain Light Rain
12:16 PM 69.1 °F 66.9 °F 93% 29.96 in 1.5 mi Calm Calm - 0.01 in Rain Light Rain
12:20 PM 69.8 °F 66.2 °F 88% 29.97 in 0.2 mi NNW 3.5 mph - N/A Fog , Rain Light Rain
12:22 PM 69.1 °F 66.9 °F 93% 29.97 in 0.2 mi Calm Calm - 0.01 in Fog , Rain Light Rain
12:29 PM 69.1 °F 66.9 °F 93% 29.99 in 1.5 mi Calm Calm - 0.01 in   Overcast
12:31 PM 69.1 °F 66.9 °F 93% 29.99 in 3.0 mi Calm Calm - 0.01 in   Overcast
12:33 PM 69.1 °F 66.9 °F 93% 29.99 in 1.8 mi Calm Calm - 0.01 in   Overcast
12:35 PM 69.1 °F 66.9 °F 93% 29.98 in 0.8 mi Calm Calm - 0.01 in   Overcast
12:45 PM 69.1 °F 66.9 °F 93% 29.95 in 2.0 mi Calm Calm - 0.01 in   Mostly Cloudy
12:53 PM 69.8 °F 66.2 °F 88% 29.97 in 2.0 mi Calm Calm - N/A   Mostly Cloudy
1:08 PM 69.1 °F 66.9 °F 93% 29.97 in 0.8 mi Calm Calm - 0.01 in Rain Rain
1:12 PM 69.1 °F 66.9 °F 93% 29.94 in 0.2 mi SSE 5.8 mph - 0.03 in Fog , Rain , Thunderstorm Thunderstorms and Rain
1:39 PM 68.0 °F 66.9 °F 96% 29.92 in 1.5 mi Calm Calm - 0.13 in Rain , Thunderstorm Light Thunderstorms and Rain
1:42 PM 68.0 °F 66.2 °F 94% 29.92 in 3.0 mi Calm Calm - N/A Rain , Thunderstorm Light Thunderstorms and Rain
1:45 PM 68.0 °F 66.9 °F 96% 29.90 in 4.0 mi Variable 5.8 mph - 0.13 in Rain , Thunderstorm Light Rain
1:53 PM 68.0 °F 66.9 °F 96% 29.86 in 0.8 mi Calm Calm - 0.14 in Rain , Thunderstorm Light Rain
2:01 PM 68.0 °F 66.9 °F 96% 29.87 in 0.2 mi Variable 4.6 mph - 0.00 in Fog , Rain , Thunderstorm Light Rain
2:07 PM 69.8 °F 66.2 °F 88% 29.87 in 1.2 mi Variable 5.8 mph - N/A Thunderstorm Overcast
2:09 PM 69.8 °F 66.2 °F 88% 29.87 in 2.0 mi Variable 6.9 mph - N/A Thunderstorm Overcast
2:16 PM 70.0 °F 68.0 °F 93% 29.88 in 4.0 mi Calm Calm - 0.00 in Rain Light Rain
2:28 PM 70.0 °F 68.0 °F 93% 29.89 in 8.0 mi Variable 3.5 mph - 0.00 in Thunderstorm Thunderstorm
2:40 PM 70.0 °F 68.0 °F 93% 29.90 in 2.0 mi Calm Calm - 0.01 in Rain , Thunderstorm Light Thunderstorms and Rain
2:42 PM 69.8 °F 68.0 °F 94% 29.91 in 0.8 mi Calm Calm - N/A Rain , Thunderstorm Light Thunderstorms and Rain
2:49 PM 69.8 °F 68.0 °F 94% 29.91 in 0.5 mi Calm Calm - 0.01 in Fog , Rain , Thunderstorm Light Thunderstorms and Rain
2:53 PM 70.0 °F 68.0 °F 93% 29.86 in 1.2 mi Calm Calm - 0.01 in Thunderstorm Mostly Cloudy
2:55 PM 70.0 °F 68.0 °F 93% 29.90 in 3.0 mi Calm Calm - N/A Thunderstorm Overcast
3:03 PM 71.1 °F 69.1 °F 93% 29.88 in 7.0 mi Variable 4.6 mph - N/A   Overcast
3:22 PM 71.1 °F 69.1 °F 93% 29.85 in 7.0 mi Variable 4.6 mph - 0.00 in Rain , Thunderstorm Light Rain
3:29 PM 73.0 °F 70.0 °F 90% 29.86 in 8.0 mi Variable 4.6 mph - 0.00 in Rain , Thunderstorm Light Thunderstorms and Rain
3:36 PM 73.0 °F 69.1 °F 87% 29.87 in 7.0 mi Variable 3.5 mph - 0.00 in Rain , Thunderstorm Light Thunderstorms and Rain
3:45 PM 72.0 °F 70.0 °F 93% 29.85 in 2.0 mi Variable 3.5 mph - 0.01 in Rain , Thunderstorm Light Rain
3:51 PM 71.6 °F 69.8 °F 94% 29.84 in 1.2 mi SE 6.9 mph - 0.07 in Rain , Thunderstorm Rain
3:52 PM 72.0 °F 70.0 °F 93% 29.81 in 1.2 mi SSE 8.1 mph - 0.07 in Rain , Thunderstorm Rain
3:58 PM 73.4 °F 69.8 °F 88% 29.83 in 3.0 mi Variable 6.9 mph - N/A Rain , Thunderstorm Light Rain
4:05 PM 72.0 °F 70.0 °F 93% 29.84 in 1.8 mi Calm Calm - 0.02 in Rain , Thunderstorm Light Thunderstorms and Rain
4:14 PM 72.0 °F 70.0 °F 93% 29.85 in 3.0 mi Calm Calm - 0.03 in Rain , Thunderstorm Light Thunderstorms and Rain
4:26 PM 72.0 °F 70.0 °F 93% 29.85 in 2.5 mi Variable 3.5 mph - 0.03 in Rain , Thunderstorm Light Rain
4:29 PM 72.0 °F 70.0 °F 93% 29.84 in 1.8 mi SSE 4.6 mph - 0.03 in Rain , Thunderstorm Light Rain
4:31 PM 72.0 °F 70.0 °F 93% 29.83 in 1.2 mi Variable 4.6 mph - 0.05 in Rain , Thunderstorm Heavy Rain
4:39 PM 72.0 °F 70.0 °F 93% 29.86 in 0.2 mi Variable 5.8 mph - 0.11 in Fog , Rain , Thunderstorm Heavy Thunderstorms and Rain
4:53 PM 72.0 °F 70.0 °F 93% 29.81 in 1.2 mi Variable 4.6 mph - 0.38 in Rain , Thunderstorm Light Thunderstorms and Rain
4:55 PM 73.0 °F 70.0 °F 90% 29.84 in 3.0 mi Variable 4.6 mph - 0.00 in Rain , Thunderstorm Light Thunderstorms and Rain
5:07 PM 72.0 °F 69.1 °F 91% 29.84 in 10.0 mi Variable 3.5 mph - 0.00 in Thunderstorm Thunderstorm
5:15 PM 72.0 °F 68.0 °F 87% 29.83 in 10.0 mi Variable 3.5 mph - 0.00 in Rain Light Rain
5:53 PM 72.0 °F 69.1 °F 91% 29.80 in 6.0 mi Calm Calm - 0.01 in Rain Light Rain
6:05 PM 71.1 °F 69.1 °F 93% 29.84 in 3.0 mi Calm Calm - 0.00 in Thunderstorm Overcast
6:14 PM 71.1 °F 69.1 °F 93% 29.84 in 2.5 mi Variable 4.6 mph - 0.00 in   Overcast
6:19 PM 71.1 °F 69.1 °F 93% 29.84 in 6.0 mi Calm Calm - 0.00 in   Overcast
6:53 PM 73.0 °F 70.0 °F 90% 29.80 in 7.0 mi Calm Calm - 0.00 in   Overcast
7:03 PM 73.0 °F 71.1 °F 93% 29.83 in 5.0 mi Variable 3.5 mph - N/A   Mostly Cloudy
7:53 PM 73.0 °F 70.0 °F 90% 29.77 in 8.0 mi Variable 4.6 mph - N/A   Clear
8:43 PM 73.0 °F 70.0 °F 90% 29.81 in 5.0 mi South 3.5 mph - N/A   Partly Cloudy
8:53 PM 72.0 °F 70.0 °F 93% 29.76 in 7.0 mi Variable 4.6 mph - N/A   Partly Cloudy
9:53 PM 72.0 °F 70.0 °F 93% 29.79 in 5.0 mi Variable 3.5 mph - N/A   Partly Cloudy
10:25 PM 72.0 °F 70.0 °F 93% 29.84 in 2.5 mi Calm Calm - N/A   Mostly Cloudy
10:53 PM 72.0 °F 70.0 °F 93% 29.81 in 2.0 mi Variable 3.5 mph - N/A   Mostly Cloudy
11:34 PM 72.0 °F 70.0 °F 93% 29.82 in 5.0 mi Variable 3.5 mph - N/A   Mostly Cloudy
11:46 PM 71.1 °F 69.1 °F 93% 29.84 in 2.5 mi North - - 0.00 in Rain , Thunderstorm Light Rain
11:48 PM 71.6 °F 68.0 °F 88% 29.84 in 1.5 mi NNW 12.7 mph 18.4 mph 0.04 in Rain , Thunderstorm Heavy Rain
11:53 PM 70.0 °F 66.9 °F 90% 29.82 in 1.0 mi WNW 8.1 mph 18.4 mph 0.17 in Rain , Thunderstorm Heavy Thunderstorms and Rain
11:56 PM 69.1 °F 66.0 °F 90% 29.86 in 0.8 mi Variable 6.9 mph 18.4 mph 0.01 in Rain , Thunderstorm Heavy Thunderstorms and Rain